When you browse on this site, cookies collect data to enhance your experience and personalize the content and advertising you see.
Visit our Privacy Policy to learn more. By continuing to use the site, you agree to this use of cookies and data.

Tiempo cada hora Yasnoe Utro

Hoy, 7 Agosto, Viernes

Tiempo Temperatura Precipitaciones Viento Presión Humedad
00:00 +19°C° 0 mm 3 mps 750 mmHg 91%
01:00 +18°C° 0 mm 3 mps 751 mmHg 92%
02:00 +17°C° 0 mm 3 mps 751 mmHg 92%
03:00 +17°C° 0 mm 3 mps 751 mmHg 90%
04:00 +16°C° 0 mm 3 mps 751 mmHg 89%
05:00 +16°C° 0 mm 3 mps 751 mmHg 87%
06:00 +17°C° 0 mm 3 mps 751 mmHg 83%
07:00 +19°C° 0 mm 4 mps 751 mmHg 79%
08:00 +20°C° 0 mm 4 mps 752 mmHg 76%
09:00 +21°C° 0 mm 4 mps 752 mmHg 71%
10:00 +22°C° 0 mm 4 mps 751 mmHg 67%
11:00 +23°C° 0 mm 5 mps 751 mmHg 62%
12:00 +25°C° 0 mm 5 mps 751 mmHg 61%
13:00 +25°C° 0 mm 5 mps 751 mmHg 60%
14:00 +25°C° 0 mm 5 mps 751 mmHg 58%
15:00 +25°C° 0 mm 4 mps 751 mmHg 61%
16:00 +23°C° 0 mm 4 mps 751 mmHg 63%
17:00 +24°C° 0 mm 3 mps 751 mmHg 66%
18:00 +21°C° 0 mm 3 mps 751 mmHg 70%
19:00 +20°C° 0 mm 3 mps 751 mmHg 73%
20:00 +18°C° 0 mm 2 mps 751 mmHg 77%
21:00 +18°C° 0 mm 2 mps 751 mmHg 79%
22:00 +17°C° 0 mm 2 mps 751 mmHg 81%
23:00 +17°C° 0 mm 2 mps 751 mmHg 84%

Mañana, 8 Agosto, Sábado

Tiempo Temperatura Precipitaciones Viento Presión Humedad
00:00 +16°C° 0 mm 2 mps 751 mmHg 84%
01:00 +16°C° 0 mm 2 mps 751 mmHg 85%
02:00 +15°C° 0 mm 2 mps 751 mmHg 85%
03:00 +15°C° 0 mm 2 mps 750 mmHg 85%
04:00 +15°C° 0 mm 2 mps 750 mmHg 85%
05:00 +15°C° 0 mm 2 mps 750 mmHg 85%
06:00 +17°C° 0 mm 2 mps 750 mmHg 81%
07:00 +19°C° 0 mm 3 mps 751 mmHg 76%
08:00 +20°C° 0 mm 3 mps 751 mmHg 72%
09:00 +21°C° 0 mm 3 mps 750 mmHg 68%
10:00 +24°C° 0 mm 3 mps 750 mmHg 64%
11:00 +25°C° 0 mm 3 mps 750 mmHg 60%
12:00 +25°C° 0 mm 3 mps 750 mmHg 58%
13:00 +25°C° 0 mm 3 mps 749 mmHg 57%
14:00 +26°C° 0 mm 3 mps 749 mmHg 56%
15:00 +25°C° 0 mm 3 mps 748 mmHg 59%
16:00 +25°C° 0 mm 2 mps 748 mmHg 61%
17:00 +25°C° 0 mm 2 mps 748 mmHg 64%
18:00 +23°C° 0 mm 2 mps 748 mmHg 70%
19:00 +21°C° 0 mm 2 mps 747 mmHg 76%
20:00 +19°C° 0 mm 2 mps 747 mmHg 81%
21:00 +18°C° 0 mm 2 mps 747 mmHg 84%
22:00 +18°C° 0 mm 2 mps 747 mmHg 88%
23:00 +17°C° 0 mm 2 mps 747 mmHg 91%

Pasado mañana, 9 Agosto, Domingo

Tiempo Temperatura Precipitaciones Viento Presión Humedad
00:00 +17°C° 0 mm 2 mps 747 mmHg 92%
01:00 +17°C° 0 mm 2 mps 747 mmHg 93%
02:00 +16°C° 0 mm 2 mps 746 mmHg 94%
03:00 +16°C° 0 mm 2 mps 746 mmHg 95%
04:00 +16°C° 0 mm 2 mps 746 mmHg 95%
05:00 +16°C° 0 mm 2 mps 746 mmHg 96%
06:00 +17°C° 0 mm 3 mps 746 mmHg 89%
07:00 +19°C° 0 mm 3 mps 746 mmHg 83%
08:00 +21°C° 0 mm 3 mps 746 mmHg 76%
09:00 +22°C° 0 mm 3 mps 746 mmHg 71%
10:00 +23°C° 0 mm 4 mps 746 mmHg 65%
11:00 +25°C° 0 mm 4 mps 746 mmHg 60%
12:00 +25°C° 0 mm 3 mps 746 mmHg 58%
13:00 +25°C° 0 mm 3 mps 746 mmHg 56%
14:00 +26°C° 0 mm 3 mps 745 mmHg 54%
15:00 +26°C° 0 mm 3 mps 745 mmHg 56%
16:00 +25°C° 0 mm 2 mps 745 mmHg 59%
17:00 +25°C° 0 mm 2 mps 745 mmHg 61%
18:00 +23°C° 0 mm 2 mps 745 mmHg 66%
19:00 +20°C° 0 mm 2 mps 745 mmHg 71%
20:00 +19°C° 0 mm 2 mps 745 mmHg 76%
21:00 +18°C° 0 mm 2 mps 745 mmHg 79%
22:00 +19°C° 0 mm 1 mps 745 mmHg 83%
23:00 +18°C° 0 mm 1 mps 745 mmHg 87%

10 Agosto, Lunes

Tiempo Temperatura Precipitaciones Viento Presión Humedad
00:00 +17°C° 0 mm 2 mps 745 mmHg 89%
01:00 +16°C° 0 mm 2 mps 745 mmHg 91%
02:00 +16°C° 0 mm 2 mps 745 mmHg 94%
03:00 +16°C° 0 mm 2 mps 745 mmHg 94%
04:00 +16°C° 0 mm 2 mps 745 mmHg 94%
05:00 +15°C° 0 mm 2 mps 745 mmHg 94%
06:00 +17°C° 0 mm 3 mps 745 mmHg 88%
07:00 +18°C° 0 mm 3 mps 745 mmHg 83%
08:00 +20°C° 0 mm 3 mps 745 mmHg 77%
09:00 +21°C° 0 mm 3 mps 745 mmHg 71%
10:00 +22°C° 0 mm 4 mps 745 mmHg 65%
11:00 +23°C° 0 mm 4 mps 745 mmHg 59%
12:00 +23°C° 0 mm 4 mps 745 mmHg 57%
13:00 +23°C° 0 mm 4 mps 745 mmHg 56%
14:00 +25°C° 0 mm 3 mps 745 mmHg 54%
15:00 +24°C° 0 mm 3 mps 745 mmHg 57%
16:00 +24°C° 0 mm 3 mps 745 mmHg 60%
17:00 +24°C° 0 mm 2 mps 744 mmHg 63%
18:00 +21°C° 0 mm 2 mps 744 mmHg 67%
19:00 +20°C° 0 mm 1 mps 744 mmHg 71%
20:00 +18°C° 0 mm 1 mps 744 mmHg 75%
21:00 +18°C° 0 mm 1 mps 744 mmHg 76%
22:00 +18°C° 0 mm 1 mps 744 mmHg 76%
23:00 +16°C° 0 mm 1 mps 744 mmHg 76%

11 Agosto, Martes

Tiempo Temperatura Precipitaciones Viento Presión Humedad
00:00 +16°C° 0 mm 1 mps 744 mmHg 78%
01:00 +16°C° 0 mm 2 mps 744 mmHg 79%
02:00 +16°C° 0 mm 2 mps 744 mmHg 81%
03:00 +16°C° 0 mm 2 mps 744 mmHg 82%
04:00 +16°C° 0 mm 2 mps 744 mmHg 83%
05:00 +16°C° 0 mm 2 mps 744 mmHg 84%
06:00 +17°C° 0 mm 3 mps 743 mmHg 82%
07:00 +19°C° 0 mm 3 mps 743 mmHg 79%
08:00 +20°C° 0 mm 4 mps 743 mmHg 76%
09:00 +21°C° 0.6 mm 4 mps 743 mmHg 74%
10:00 +23°C° 0.6 mm 4 mps 743 mmHg 71%
11:00 +25°C° 0.6 mm 4 mps 742 mmHg 68%
12:00 +25°C° 1.4 mm 4 mps 742 mmHg 67%
13:00 +26°C° 1.4 mm 4 mps 742 mmHg 66%
14:00 +26°C° 1.4 mm 4 mps 742 mmHg 64%
15:00 +25°C° 1.5 mm 4 mps 742 mmHg 69%
16:00 +24°C° 1.5 mm 3 mps 742 mmHg 73%
17:00 +22°C° 1.5 mm 3 mps 741 mmHg 78%
18:00 +21°C° 0.2 mm 3 mps 741 mmHg 81%
19:00 +19°C° 0.2 mm 3 mps 741 mmHg 85%
20:00 +18°C° 0.2 mm 3 mps 741 mmHg 88%
21:00 +17°C° 0 mm 3 mps 741 mmHg 89%
22:00 +16°C° 0 mm 3 mps 741 mmHg 90%
23:00 +14°C° 0 mm 3 mps 741 mmHg 91%

12 Agosto, Miércoles

Tiempo Temperatura Precipitaciones Viento Presión Humedad
00:00 +13°C° 0 mm 3 mps 741 mmHg 91%
01:00 +13°C° 0 mm 3 mps 741 mmHg 90%
02:00 +12°C° 0 mm 3 mps 741 mmHg 90%
03:00 +12°C° 0 mm 3 mps 741 mmHg 91%
04:00 +11°C° 0 mm 3 mps 741 mmHg 92%
05:00 +11°C° 0 mm 3 mps 741 mmHg 93%
06:00 +12°C° 0 mm 3 mps 741 mmHg 89%
07:00 +14°C° 0 mm 3 mps 741 mmHg 85%
08:00 +15°C° 0 mm 4 mps 741 mmHg 80%
09:00 +17°C° 0.4 mm 4 mps 741 mmHg 78%
10:00 +17°C° 0.4 mm 4 mps 741 mmHg 76%
11:00 +18°C° 0.4 mm 4 mps 741 mmHg 74%
12:00 +17°C° 0.9 mm 5 mps 741 mmHg 74%
13:00 +19°C° 0.9 mm 6 mps 741 mmHg 73%
14:00 +19°C° 0.9 mm 6 mps 741 mmHg 73%
15:00 +17°C° 0.6 mm 7 mps 741 mmHg 77%
16:00 +16°C° 0.6 mm 7 mps 741 mmHg 81%
17:00 +15°C° 0.6 mm 7 mps 741 mmHg 85%
18:00 +15°C° 0 mm 6 mps 742 mmHg 86%
19:00 +14°C° 0 mm 6 mps 742 mmHg 87%
20:00 +13°C° 0 mm 5 mps 742 mmHg 88%
21:00 +12°C° 0 mm 5 mps 742 mmHg 89%
22:00 +12°C° 0 mm 5 mps 743 mmHg 90%
23:00 +12°C° 0 mm 5 mps 743 mmHg 91%
Mostrar más